Location: Stockholm
(59.3330°N, 18.0500°E)
Time: 10:30:38
(UTC+01:00)

FENGYUN 1C DEB - Pass Details

Date: 12 December 2023
Orbit: 841 x 915 km, 98.8° (Epoch: 21 February)

Event Time Altitude Azimuth Distance (km) Brightness Sun altitude
Exits shadow 20:23:07 15° 342° (NNW) 2,161 ? -39.9°
Drops below altitude 10° 20:23:57 10° 342° (NNW) 2,485 ? -40.0°
Sets 20:26:20 0° 342° (NNW) 3,431 ? -40.3°
